timestamp,surface_pressure_avg,surface_temp_avg,battery_voltage,lat,long
2021-05-04 00:09:01+00:00,221.6265,5.8,13.21,47.84626,-54.09684
2021-05-04 00:19:01+00:00,221.8298,5.76,12.89,47.84626,-54.09684
2021-05-04 00:29:01+00:00,226.7564,5.7,12.89,47.84626,-54.09684
2021-05-04 00:39:01+00:00,234.6748,5.7,12.89,47.84626,-54.09684
2021-05-04 00:49:01+00:00,235.7564,5.7,12.89,47.84626,-54.09684
2021-05-04 00:59:01+00:00,233.9814,5.7,12.89,47.84626,-54.09684
2021-05-04 01:09:01+00:00,234.0431,5.69,12.89,47.84626,-54.09684
2021-05-04 01:19:00+00:00,241.9214,5.5,12.65,47.84626,-54.09684
2021-05-04 01:29:00+00:00,249.8665,5.4,12.65,47.84626,-54.09684
2021-05-04 01:39:00+00:00,256.1165,5.4,12.65,47.84626,-54.09684
2021-05-04 01:49:00+00:00,256.6615,5.4,12.65,47.84626,-54.09684
2021-05-04 01:59:00+00:00,256.7014,5.4,12.65,47.84626,-54.09684
2021-05-04 02:09:00+00:00,256.3498,5.4,12.65,47.84626,-54.09684
2021-05-04 02:19:00+00:00,262.6197,5.4,12.65,47.84626,-54.09684
2021-05-04 02:29:00+00:00,267.4981,5.4,12.65,47.84626,-54.09684
2021-05-04 02:39:00+00:00,270.048,5.4,12.65,47.84626,-54.09684
2021-05-04 02:49:00+00:00,272.6114,5.4,12.65,47.84626,-54.09684
2021-05-04 02:59:00+00:00,283.9864,5.2,12.65,47.84626,-54.09684
2021-05-04 03:09:00+00:00,292.3914,5.13,12.65,47.84626,-54.09684
2021-05-04 03:19:01+00:00,299.0714,5.1,12.65,47.84626,-54.09684
2021-05-04 03:29:01+00:00,300.4663,5.1,12.65,47.84626,-54.09684
2021-05-04 03:39:01+00:00,307.228,5.1,12.65,47.84626,-54.09684
2021-05-04 03:49:01+00:00,312.108,5.1,12.65,47.84626,-54.09684
2021-05-04 03:59:01+00:00,318.4063,5.04,12.65,47.84626,-54.09684
2021-05-04 04:09:01+00:00,321.4896,5.0,12.65,47.84626,-54.09684
2021-05-04 04:19:00+00:00,327.6547,4.79,12.65,47.84626,-54.09684
2021-05-04 04:29:00+00:00,330.1497,4.6,12.65,47.84626,-54.09684
2021-05-04 04:39:00+00:00,334.6364,4.57,12.65,47.84626,-54.09684
2021-05-04 04:49:00+00:00,338.6613,4.2,12.65,47.84626,-54.09684
2021-05-04 04:59:00+00:00,341.7513,4.12,12.65,47.84626,-54.09684
2021-05-04 05:09:00+00:00,337.1514,4.2,12.65,47.84626,-54.09684
2021-05-04 05:19:01+00:00,337.7713,4.2,12.65,47.84626,-54.09684
2021-05-04 05:29:01+00:00,345.788,4.1,12.65,47.84626,-54.09684
2021-05-04 05:39:01+00:00,346.838,4.1,12.65,47.84626,-54.09684
2021-05-04 05:49:01+00:00,342.3163,4.29,12.65,47.84626,-54.09684
2021-05-04 05:59:01+00:00,340.3914,4.3,12.65,47.84626,-54.09684
2021-05-04 06:09:01+00:00,339.9464,4.3,12.65,47.84626,-54.09684
2021-05-04 06:19:01+00:00,338.293,4.3,12.57,47.84626,-54.09684
2021-05-04 06:29:01+00:00,342.2512,4.3,12.57,47.84626,-54.09684
2021-05-04 06:39:01+00:00,346.0963,4.4,12.57,47.84626,-54.09684
2021-05-04 06:49:01+00:00,341.598,4.5,12.57,47.84626,-54.09684
2021-05-04 06:59:01+00:00,334.8497,4.6,12.57,47.84626,-54.09684
2021-05-04 07:09:01+00:00,333.8347,4.6,12.57,47.84626,-54.09684
2021-05-04 07:19:01+00:00,336.343,4.61,12.57,47.84626,-54.09684
2021-05-04 07:29:01+00:00,331.108,4.73,12.57,47.84626,-54.09684
2021-05-04 07:39:01+00:00,324.4963,4.87,12.57,47.84626,-54.09684
2021-05-04 07:49:01+00:00,322.6779,4.9,12.57,47.84626,-54.09684
2021-05-04 07:59:01+00:00,317.063,4.9,12.57,47.84626,-54.09684
2021-05-04 08:09:01+00:00,309.0214,4.9,12.57,47.84626,-54.09684
2021-05-04 08:19:01+00:00,306.638,4.9,12.57,47.84626,-54.09684
2021-05-04 08:29:01+00:00,303.468,4.9,12.57,47.84626,-54.09684
2021-05-04 08:39:01+00:00,293.5197,4.9,12.57,47.84626,-54.09684
2021-05-04 08:49:01+00:00,289.448,4.9,12.57,47.84626,-54.09684
2021-05-04 08:59:01+00:00,284.4697,4.99,12.57,47.84626,-54.09684
2021-05-04 09:09:01+00:00,273.4164,5.06,12.57,47.84626,-54.09684
2021-05-04 09:19:01+00:00,264.6597,5.1,12.57,47.84626,-54.09684
2021-05-04 09:29:01+00:00,266.3614,5.1,12.57,47.84626,-54.09684
2021-05-04 09:39:01+00:00,263.7131,5.08,12.57,47.84626,-54.09684
2021-05-04 09:49:01+00:00,255.7214,5.08,12.57,47.84626,-54.09684
2021-05-04 09:59:01+00:00,249.1764,5.1,12.57,47.84626,-54.09684
2021-05-04 10:09:01+00:00,245.9064,5.1,12.57,47.84626,-54.09684
2021-05-04 10:19:01+00:00,243.063,5.1,12.73,47.84626,-54.09684
2021-05-04 10:29:01+00:00,239.9431,5.1,12.73,47.84626,-54.09684
2021-05-04 10:39:01+00:00,238.5598,5.1,12.73,47.84626,-54.09684
2021-05-04 10:49:01+00:00,237.0714,5.07,12.73,47.84626,-54.09684
2021-05-04 10:59:01+00:00,232.2731,5.07,12.73,47.84626,-54.09684
2021-05-04 11:09:01+00:00,233.4498,5.08,12.73,47.84626,-54.09684
2021-05-04 11:19:00+00:00,233.3547,5.06,14.0,47.84626,-54.09684
2021-05-04 11:29:00+00:00,230.1214,5.06,14.0,47.84626,-54.09684
2021-05-04 11:39:00+00:00,231.3881,5.08,14.0,47.84626,-54.09684
2021-05-04 11:49:00+00:00,234.9347,5.08,14.0,47.84626,-54.09684
2021-05-04 11:59:00+00:00,233.0048,5.09,14.0,47.84626,-54.09684
2021-05-04 12:09:00+00:00,230.9064,5.1,14.0,47.84626,-54.09684
2021-05-04 12:19:01+00:00,233.4331,5.09,14.56,47.84626,-54.09684
2021-05-04 12:29:01+00:00,237.6564,5.06,14.56,47.84626,-54.09684
2021-05-04 12:39:01+00:00,236.4464,5.09,14.56,47.84626,-54.09684
2021-05-04 12:49:01+00:00,237.0048,5.1,14.56,47.84626,-54.09684
2021-05-04 12:59:01+00:00,241.8214,5.1,14.56,47.84626,-54.09684
2021-05-04 13:09:01+00:00,242.3264,5.1,14.56,47.84626,-54.09684
2021-05-04 13:19:00+00:00,240.8081,5.07,14.4,47.84626,-54.09684
2021-05-04 13:29:00+00:00,240.7064,5.05,14.4,47.84626,-54.09684
2021-05-04 13:39:00+00:00,242.5898,5.0,14.4,47.84626,-54.09684
2021-05-04 13:49:00+00:00,243.0497,5.03,14.4,47.84626,-54.09684
2021-05-04 13:59:00+00:00,240.9031,5.1,14.4,47.84626,-54.09684
2021-05-04 14:09:00+00:00,240.6248,5.1,14.4,47.84626,-54.09684
2021-05-04 14:19:01+00:00,243.8765,5.1,14.16,47.84626,-54.09684
2021-05-04 14:29:01+00:00,246.4181,5.0,14.16,47.84626,-54.09684
2021-05-04 14:39:01+00:00,249.1231,5.0,14.16,47.84626,-54.09684
2021-05-04 14:49:01+00:00,249.9814,5.0,14.16,47.84626,-54.09684
2021-05-04 14:59:01+00:00,251.3514,5.0,14.16,47.84626,-54.09684
2021-05-04 15:09:01+00:00,255.2314,4.99,14.16,47.84626,-54.09684
2021-05-04 15:19:01+00:00,260.4247,4.96,14.24,47.84626,-54.09684
2021-05-04 15:29:01+00:00,262.8697,5.0,14.24,47.84626,-54.09684
2021-05-04 15:39:01+00:00,264.0831,5.1,14.24,47.84626,-54.09684
2021-05-04 15:49:01+00:00,268.9831,5.0,14.24,47.84626,-54.09684
2021-05-04 15:59:01+00:00,274.1614,4.96,14.24,47.84626,-54.09684
2021-05-04 16:09:01+00:00,276.8381,5.0,14.24,47.84626,-54.09684
2021-05-04 16:19:01+00:00,279.513,5.0,14.32,47.84626,-54.09684
2021-05-04 16:29:01+00:00,287.4997,5.0,14.32,47.84626,-54.09684
2021-05-04 16:39:01+00:00,291.6163,5.0,14.32,47.84626,-54.09684
2021-05-04 16:49:01+00:00,292.0598,5.0,14.32,47.84626,-54.09684
2021-05-04 16:59:01+00:00,293.8847,5.0,14.32,47.84626,-54.09684
2021-05-04 17:09:01+00:00,297.3929,4.9,14.32,47.84626,-54.09684
2021-05-04 17:19:00+00:00,296.4697,4.9,14.0,47.84626,-54.09684
2021-05-04 17:29:00+00:00,298.1497,4.9,14.0,47.84626,-54.09684
2021-05-04 17:39:00+00:00,305.1314,4.96,14.0,47.84626,-54.09684
2021-05-04 17:49:00+00:00,309.8147,4.99,14.0,47.84626,-54.09684
2021-05-04 17:59:00+00:00,309.1063,4.95,14.0,47.84626,-54.09684
2021-05-04 18:09:00+00:00,310.9331,4.95,14.0,47.84626,-54.09684
2021-05-04 18:19:01+00:00,314.0063,4.8,14.0,47.84626,-54.09684
2021-05-04 18:29:01+00:00,312.8413,4.88,14.0,47.84626,-54.09684
2021-05-04 18:39:01+00:00,309.748,4.9,14.0,47.84626,-54.09684
2021-05-04 18:49:01+00:00,314.7079,4.7,14.0,47.84626,-54.09684
2021-05-04 18:59:01+00:00,316.8747,4.7,14.0,47.84626,-54.09684
2021-05-04 19:09:01+00:00,313.14799999999997,4.8,14.0,47.84626,-54.09684
2021-05-04 19:19:01+00:00,309.5463,4.9,14.0,47.84626,-54.09684
2021-05-04 19:29:01+00:00,311.1581,4.9,14.0,47.84626,-54.09684
2021-05-04 19:39:01+00:00,307.6364,4.9,14.0,47.84626,-54.09684
2021-05-04 19:49:01+00:00,300.7147,4.9,14.0,47.84626,-54.09684
2021-05-04 19:59:01+00:00,299.2914,4.93,14.0,47.84626,-54.09684
2021-05-04 20:09:01+00:00,297.2164,4.97,14.0,47.84626,-54.09684
2021-05-04 20:19:01+00:00,288.3881,5.01,13.68,47.84626,-54.09684
2021-05-04 20:29:01+00:00,281.6564,5.1,13.68,47.84626,-54.09684
2021-05-04 20:39:01+00:00,278.0397,5.1,13.68,47.84626,-54.09684
2021-05-04 20:49:01+00:00,274.9714,5.27,13.68,47.84626,-54.09684
2021-05-04 20:59:01+00:00,271.2031,5.59,13.68,47.84626,-54.09684
2021-05-04 21:09:01+00:00,269.7314,5.7,13.68,47.84626,-54.09684
2021-05-04 21:19:01+00:00,266.1614,5.7,13.44,47.84626,-54.09684
2021-05-04 21:29:01+00:00,258.2497,5.73,13.44,47.84626,-54.09684
2021-05-04 21:39:01+00:00,249.8698,5.7,13.44,47.84626,-54.09684
2021-05-04 21:49:01+00:00,243.7314,5.7,13.44,47.84626,-54.09684
2021-05-04 21:59:01+00:00,240.3248,5.7,13.44,47.84626,-54.09684
2021-05-04 22:09:01+00:00,237.5782,5.65,13.44,47.84626,-54.09684
2021-05-04 22:19:01+00:00,233.8647,5.6,13.37,47.84626,-54.09684
2021-05-04 22:29:01+00:00,232.1431,5.6,13.37,47.84626,-54.09684
2021-05-04 22:39:01+00:00,229.6797,5.6,13.37,47.84626,-54.09684
2021-05-04 22:49:01+00:00,226.5515,5.67,13.37,47.84626,-54.09684
2021-05-04 22:59:01+00:00,222.4364,5.7,13.37,47.84626,-54.09684
2021-05-04 23:09:01+00:00,222.3198,5.7,13.37,47.84626,-54.09684
2021-05-04 23:19:01+00:00,225.6114,5.7,13.05,47.84626,-54.09684
2021-05-04 23:29:01+00:00,223.9865,5.7,13.05,47.84626,-54.09684
2021-05-04 23:39:01+00:00,215.9664,5.69,13.05,47.84626,-54.09684
2021-05-04 23:49:01+00:00,214.4314,5.69,13.05,47.84626,-54.09684
2021-05-04 23:59:01+00:00,219.1881,5.64,13.05,47.84626,-54.09684
